Location: Unspecified
(45.4615°N, 74.0512°W)
Time: 13:30:33
(UTC-05:00)

Cosmos 1674 - Visible Passes

Search period start: 18 December 2017 00:00
Search period end: 28 December 2017 00:00
Orbit: 498 x 521 km, 82.5° (Epoch: 17 December)

Date Brightness Start Highest point End Pass type
(mag) Time Alt. Az. Time Alt. Az. Time Alt. Az.
25 Dec 5.2 06:49:10 10° NNE 06:52:02 20° ENE 06:54:53 10° ESE visible
26 Dec 5.4 06:32:33 10° NNE 06:35:01 16° ENE 06:37:27 10° ESE visible
27 Dec 5.6 06:16:06 10° NE 06:17:58 13° ENE 06:19:50 10° E visible
